Sleetmute, AK

6:12 PM AKDT on August 23, 2017 (GMT -0800)
Sleetmute

Weather History for PASL - March, 2013

Change the Weather History Date:

Wednesday, March 27, 2013

  Actual Average Record
Temperature  
Mean Temperature -7 °F -  
Max Temperature 15 °F 23 °F 46 °F (2015)
Min Temperature -29 °F 5 °F -29 °F (2013)
Degree Days  
Heating Degree Days 72    
Moisture  
Dew Point -14 °F    
Average Humidity 38    
Maximum Humidity 100    
Minimum Humidity 27    
Precipitation  
Precipitation 0.00 in - - ()
Sea Level Pressure  
Sea Level Pressure 30.17 in    
Wind  
Wind Speed 1 mph (South)    
Max Wind Speed 7 mph    
Max Gust Speed -    
Visibility 10 miles    
Events      
Averages and records for this station are not official NWS values.
T = Trace of Precipitation, MM = Missing Value Source: NWS Daily Summary

Daily Weather History Graph

Daily Weather History Graph

Search for Another Location

Airport or City:

Trip Planner

Search our weather history database for the weather conditions in past years. The results will help you decide how hot, cold, wet, or windy it might be!

Date:

Astronomy

Mar. 27, 2013 Rise Set
Actual Time 8:05 AM AKDT 9:03 PM AKDT
Civil Twilight 7:21 AM AKDT 9:48 PM AKDT
Nautical Twilight 6:25 AM AKDT 10:44 PM AKDT
Astronomical Twilight 5:21 AM AKDT 11:49 PM AKDT
Moon 10:29 PM AKDT (3/27) 7:46 AM AKDT (3/27)
Length of Visible Light 14h 27m
Length of Day
12h 57m
Full, 100% of the Moon is Illuminated
Mar 27
Full
Apr 2
Last Quarter
Apr 10
New
Apr 18
First Quarter
Apr 25
Full

Hourly Weather History & Observations

Time (AKDT) Temp. Windchill Dew Point Humidity Pressure Visibility Wind Dir Wind Speed Gust Speed Precip Events Conditions
12:16 AM -14.8 °F - -25.6 °F 58% 30.28 in 10.0 mi Calm Calm - N/A   Clear
12:36 AM -16.6 °F - -27.4 °F 58% 30.29 in 10.0 mi Calm Calm - N/A   Clear
12:56 AM -16.6 °F - -25.6 °F 64% 30.28 in 10.0 mi Calm Calm - N/A   Clear
1:16 AM -18.4 °F - - N/A% 30.29 in 10.0 mi Calm Calm - N/A   Clear
1:36 AM -18.4 °F - -29.2 °F 58% 30.29 in 10.0 mi Calm Calm - N/A   Clear
1:56 AM -20.2 °F - -20.2 °F 100% 30.29 in 10.0 mi Calm Calm - N/A   Clear
2:56 AM -23.8 °F - - N/A% 30.28 in 8.0 mi Calm Calm - N/A   Clear
3:16 AM -23.8 °F - - N/A% 30.28 in 10.0 mi Calm Calm - N/A   Clear
4:16 AM -25.6 °F - - N/A% 30.28 in 10.0 mi Calm Calm - N/A   Clear
4:36 AM -25.6 °F - - N/A% 30.28 in 8.0 mi Calm Calm - N/A   Clear
5:16 AM -25.6 °F - - N/A% 30.28 in 10.0 mi Calm Calm - N/A   Clear
5:56 AM -27.4 °F - - N/A% 30.27 in 10.0 mi Calm Calm - N/A   Clear
6:36 AM -27.4 °F - - N/A% 30.28 in 10.0 mi Calm Calm - N/A   Clear
6:56 AM -29.2 °F - - N/A% 30.28 in 10.0 mi Calm Calm - N/A   Clear
7:16 AM -29.2 °F - - N/A% 30.27 in 10.0 mi Calm Calm - N/A   Clear
7:36 AM -29.2 °F - - N/A% 30.27 in 10.0 mi Calm Calm - N/A   Clear
7:56 AM -29.2 °F - - N/A% 30.27 in 10.0 mi Calm Calm - N/A   Clear
8:16 AM -29.2 °F - - N/A% 30.26 in 10.0 mi Calm Calm - N/A   Clear
8:36 AM -29.2 °F - - N/A% 30.26 in 10.0 mi Calm Calm - N/A   Clear
3:16 PM 10.4 °F 0.8 °F -14.8 °F 31% 30.16 in 10.0 mi SSE 5.8 mph - N/A   Clear
3:36 PM 10.4 °F 4.0 °F -14.8 °F 31% 30.15 in 10.0 mi South 3.5 mph - N/A   Clear
3:56 PM 12.2 °F 2.9 °F -14.8 °F 29% 30.15 in 10.0 mi SSE 5.8 mph - N/A   Clear
4:16 PM 12.2 °F 2.9 °F -14.8 °F 29% 30.14 in 10.0 mi South 5.8 mph - N/A   Clear
4:36 PM 12.2 °F 1.7 °F -13.0 °F 32% 30.13 in 10.0 mi SSE 6.9 mph - N/A   Clear
4:56 PM 12.2 °F 4.3 °F -14.8 °F 29% 30.12 in 10.0 mi SE 4.6 mph - N/A   Clear
5:16 PM 14.0 °F 6.5 °F -11.2 °F 32% 30.11 in 10.0 mi South 4.6 mph - N/A   Clear
5:36 PM 14.0 °F 6.5 °F -14.8 °F 27% 30.10 in 10.0 mi SE 4.6 mph - N/A   Clear
5:56 PM 15.8 °F 8.6 °F -11.2 °F 30% 30.10 in 10.0 mi SSE 4.6 mph - N/A   Partly Cloudy
6:16 PM 15.8 °F 8.6 °F -11.2 °F 30% 30.09 in 10.0 mi South 4.6 mph - N/A   Mostly Cloudy
6:36 PM 15.8 °F 10.2 °F -11.2 °F 30% 30.09 in 10.0 mi SSW 3.5 mph - N/A   Overcast
6:56 PM 15.8 °F 10.2 °F -11.2 °F 30% 30.08 in 10.0 mi SSW 3.5 mph - N/A   Mostly Cloudy
7:16 PM 15.8 °F 8.6 °F -11.2 °F 30% 30.07 in 10.0 mi SSW 4.6 mph - N/A   Mostly Cloudy
7:56 PM 15.8 °F 10.2 °F -11.2 °F 30% 30.06 in 10.0 mi SSE 3.5 mph - N/A   Mostly Cloudy
8:16 PM 15.8 °F 10.2 °F -9.4 °F 32% 30.05 in 10.0 mi SSE 3.5 mph - N/A   Overcast
8:36 PM 15.8 °F - -7.6 °F 35% 30.05 in 10.0 mi Calm Calm - N/A   Overcast
8:56 PM 15.8 °F - -9.4 °F 32% 30.04 in 10.0 mi Calm Calm - N/A   Overcast
9:16 PM 15.8 °F - -9.4 °F 32% 30.04 in 10.0 mi Calm Calm - N/A   Overcast
9:36 PM 15.8 °F - -9.4 °F 32% 30.04 in 10.0 mi Calm Calm - N/A   Overcast
10:16 PM 15.8 °F - -5.8 °F 38% 30.04 in 9.0 mi Calm Calm - N/A   Overcast
10:56 PM 15.8 °F - -11.2 °F 30% 30.02 in 10.0 mi Calm Calm - N/A   Overcast
11:16 PM 15.8 °F - - N/A% 30.02 in 10.0 mi Calm Calm - N/A   Overcast
11:56 PM 14.0 °F - -2.2 °F 49% 30.01 in 10.0 mi Calm Calm - N/A   Overcast